星链-1804 (STARLINK-1804 )

导读

STARLINK-1804是美国太空探索技术公司星链低轨宽带互联网卫星,于2020年10月18日发射,属于星链星座的组成部分,承担为全球提供高速互联网服务的任务,依托低轨运行特性降低通信时延,服务覆盖偏远及网络基础设施薄弱区域,推动全球互联网普及进程。

基本信息
目录编号:
46704
目录名称:
STARLINK-1804
国际标识:
2020-073AL
轨道中心:
EARTH
卫星名称:
星链-1804
卫星全名:
星链-1804 (STARLINK-1804 )
卫星状态:
已陨落 最后检测时间 2024-06-09
发射日期:
2020-10-18 UTC
国别 :
美国 (US)
星等 :
--
轨道信息
数据来源 国际轨道数据
星历时间: 2024-06-09T23:24:10+0800
轨道信息已过期734天
半长轴: 6547.912km
偏心率: 0.000446
轨道倾角: 53.029°
近地点辐角 326.415°
升交点赤经 164.759°
平近点角 133.933°
近地点: 166.856km
远地点: 172.698km
周期: 87.885分钟
每日圈数: 16.385081
详细信息
固有亮度:
5
最大亮度:
2.5
卫星平台:
Starlink V1.0
覆盖范围:
全球
运营商:
太空探索技术公司
运营商所在国:
美国
制造商(研发单位):
太空探索技术公司
制造商所在国:
美国
使用方式:
暂无
卫星简介
星链(Starlink)计划是由太空探索技术公司(SpaceX)提出的一个巨型低轨卫星互联网星座项目,计划在2019年至2024年间在太空搭建由约1.2万颗卫星组成的“星链”网络,其中1584颗将部署在地球上空550千米处的近地轨道,并从2020年开始工作。该卫星已陨落。